Regional Weather Roundup
Issued by NWS

Home | Current Version | Previous Version | Graphics & Text | Print | Product List | Glossary On
Versions: 1 2 3 4 5 6 7 8 9 10 11 12 13 14 15 16 17 18 19 20 21 22 23 24 25 26 27 28 29 30 31 32 33 34 35 36 37 38 39 40 41 42 43 44 45 46 47 48 49 50
000
ASUS43 KFSD 221202
RWRSD

WEATHER ROUNDUP FOR SOUTH DAKOTA
NATIONAL WEATHER SERVICE SIOUX FALLS SD
700 AM CDT THU JUN 22 2017

NOTE: "FAIR" INDICATES FEW OR NO CLOUDS BELOW 12,000 FEET WITH NO
SIGNIFICANT WEATHER AND/OR OBSTRUCTIONS TO VISIBILITY.


SDZ001>005-009-010-012>017-221300-
NORTHWEST AND NORTH CENTRAL SOUTH DAKOTA

CITY           SKY/WX    TMP DP  RH WIND       PRES   REMARKS
BUFFALO          N/A     54  43  66 N20       29.82R
FAITH            N/A     56  54  93 N5        29.82R
MOBRIDGE       CLOUDY    61  53  75 N12       29.78R HAZE
$$

SDZ012>016-024>037-041>051-057-063-072>074-221300-
SOUTHWEST AND SOUTH CENTRAL SOUTH DAKOTA

CITY           SKY/WX    TMP DP  RH WIND       PRES   REMARKS
RAPID CTY ARPT CLOUDY    56  49  77 N5        29.81R
PIERRE         CLOUDY    57  54  89 N8G23     29.74R
CUSTER         PTCLDY    53  44  71 W5        29.91R
ELLSWORTH AFB  CLEAR     57  51  80 SW3       29.81R
PHILIP         CLOUDY    61  52  72 NE8       29.77R
PINE RIDGE     PTCLDY    60  53  77 N10       29.79R
SPEARFISH      FAIR      59  52  77 NW8       29.86R
WINNER         FAIR      67  51  56 E15       29.67F
$$

SDZ004>011-016>023-039-040-221300-
NORTHEAST SOUTH DAKOTA

CITY           SKY/WX    TMP DP  RH WIND       PRES   REMARKS
ABERDEEN       CLOUDY    60  56  86 NW6       29.74R
WATERTOWN      RAIN      58  55  90 E7        29.71F
BROOKINGS      LGT RAIN  63  56  78 NE13      29.73R
SISSETON         N/A     61  58  90 NW3       29.72S
$$

SDZ017-020-022-023-036>040-048>070-221300-
SOUTHEAST SOUTH DAKOTA

CITY           SKY/WX    TMP DP  RH WIND       PRES   REMARKS
SIOUX FALLS    CLOUDY    70  62  76 NW8       29.71R
HURON          LGT RAIN  60  59  96 E12       29.66F
CHAMBERLAIN    CLOUDY    64  58  80 NE10      29.69R
MITCHELL       CLOUDY    67  58  72 NE6       29.69R
YANKTON        MOSUNNY   71  63  75 NE16      29.69R
$$

ABBREVIATIONS USED IN REMARKS
   TC - TEMPERATURE IN CELSIUS
  WCI - WIND CHILL INDEX
   HX - HEAT INDEX
  VSB - VISIBILITY





USA.gov is the U.S. government's official web portal to all federal, state and local government web resources and services.